Location: Blazny
(46.0612°N, 84.4033°W)
Time: 19:42:13
(UTC-04:00)

Envisat - Pass Details

Date: 18 September 2024
Orbit: 762 x 764 km, 98.3° (Epoch: 11 October)

Event Time Altitude Azimuth Distance (km) Brightness Sun altitude
Rises 06:33:21 0° 358° (N) 3,238 6.4 -8.9°
Reaches altitude 10° 06:36:39 10° 335° (NNW) 2,306 5.3 -8.3°
Maximum altitude 06:39:20 15° 303° (WNW) 1,999 4.7 -7.9°
Drops below altitude 10° 06:42:01 10° 271° (W) 2,298 4.8 -7.4°
Enters shadow 06:42:29 - 266° (W) 2,401 4.9 -7.3°
